{"data":{"norad_id":59218,"epoch":"2026-05-24T18:23:56.506272Z","epoch_age_seconds":98443,"freshness":"FRESH","line1":"1 59218U 24046T   26144.76662623 -.00000606  00000+0 -68086-5 0  9992","line2":"2 59218  53.1607 160.8344 0001212  94.3975 265.7166 15.34387533124707","mean_motion":15.34387533,"eccentricity":0.0001212,"inclination_deg":53.1607,"raan_deg":160.8344,"arg_perigee_deg":94.3975,"mean_anomaly_deg":265.7166,"bstar":-6.8086e-6,"rev_number":12470,"period_min":93.848520600565,"perigee_km":461.91118068114,"apogee_km":463.56940933745,"semimajor_km":6840.8772950093,"source":"CELESTRAK","updated_at":"2026-05-25T13:38:18.867587Z"}}